Regional Weather Roundup
Issued by NWS

Home | Current Version | Previous Version | Graphics & Text | Print | Product List | Glossary On
Versions: 1 2 3 4 5 6 7 8 9 10 11 12 13 14 15 16 17 18 19 20 21 22 23 24 25 26 27 28 29 30 31 32 33 34 35 36 37 38 39 40 41 42 43 44 45 46 47 48 49 50
000
ASUS43 KBIS 060802
RWRND

NORTH DAKOTA REGIONAL WEATHER ROUNDUP
NATIONAL WEATHER SERVICE BISMARCK ND
200 AM CST SAT FEB 06 2016

NOTE: "FAIR" INDICATES FEW OR NO CLOUDS BELOW 12,000 FEET WITH NO
SIGNIFICANT WEATHER AND/OR OBSTRUCTIONS TO VISIBILITY.


NDZ001>003-009>011-017-060900-
NORTHWEST NORTH DAKOTA

CITY           SKY/WX    TMP DP  RH WIND       PRES   REMARKS
WILLISTON      CLOUDY    30  24  78 SW8       29.86F
MINOT          CLEAR     31  21  66 S13       29.84F
MINOT AFB      CLEAR     24  22  90 CALM      29.83F
$$

NDZ018>021-031>035-040>046-060900-
SOUTHWEST NORTH DAKOTA

CITY           SKY/WX    TMP DP  RH WIND       PRES   REMARKS
BISMARCK       CLEAR     25  19  78 CALM      29.97F
DICKINSON      CLOUDY    31  21  66 SW17      29.91F WCI  19
GARRISON         N/A     25  21  85 SW7       29.89F WCI  17
HETTINGER ARPT CLOUDY    26  19  74 W9        30.00F WCI  17
$$

NDZ004>008-012>016-024-026-027-054-060900-
NORTHEAST NORTH DAKOTA

CITY           SKY/WX    TMP DP  RH WIND       PRES   REMARKS
GRAND FORKS    CLOUDY    23  18  81 S6        29.99F WCI  16
GRND FRKS AFB  CLOUDY    22  18  83 S7        29.97F WCI  14
DEVILS LAKE    CLOUDY    24  20  84 SE3       29.92F
$$

NDZ022-023-025-028>030-036>039-047>053-060900-
SOUTHEAST NORTH DAKOTA

CITY           SKY/WX    TMP DP  RH WIND       PRES   REMARKS
FARGO          PTCLDY    22  16  78 S13       30.03F WCI  10
JAMESTOWN      CLOUDY    23  19  85 S7        29.95F WCI  15
$$




USA.gov is the U.S. government's official web portal to all federal, state and local government web resources and services.